TIME,DELAY(SENSOR),PRES,OXYGEN,RAWTEMP,T(OPTODE),TCPHASE,FLUOR,BETA(BETA700),BETA(BETA412),BETA(BETA440),CDOM,C(CSC),ED(ED412.20),ED(ED444.00),ED(ED489.60),ED(ED554.30),LU(LU412.10),LU(LU443.90),LU(LU489.70),LU(LU554.70),COMP,TILTX,TILTY,CHECK
1358219620,5812,889.8400268554688000,31.9839191436767580,561.5664062500000000,4.4373397827148440,56.7871208190918000,55,99,100,78,81,15548,0,0,0,0,2147124132,2147771812,2147571940,2147567588,1642,2,13,5238
1358223216,5807,970.2899780273438000,39.8152313232421900,567.0305175781250000,4.2678008079528810,55.6095504760742200,56,100,100,79,82,15544,0,0,0,0,2147120521,2147775204,2147573056,2147567378,964,3,13,38457
1358226816,5813,971.0499877929688000,38.9459495544433600,569.3588867187500000,4.1954817771911620,55.7701797485351560,55,99,99,78,83,15546,0,0,0,0,2147122779,2147771520,2147571894,2147570962,3417,2,13,51569
1358230416,5812,977.3499755859375000,39.2820510864257800,569.8845825195312000,4.1791458129882810,55.7186508178710940,55,98,98,78,82,15542,0,0,0,0,2147120457,2147774601,2147572059,2147566683,3460,3,13,64967
1358234016,5809,981.7199707031250000,38.7503395080566400,570.1047973632812000,4.1723041534423830,55.8001785278320300,56,98,100,77,82,15537,0,0,0,0,2147120557,2147770642,2147572964,2147569078,3451,2,13,50051
1358237616,5809,978.7899780273438000,38.9711799621582000,570.4860839843750000,4.1604561805725100,55.7764091491699200,54,99,99,77,82,15543,0,0,0,0,2147123136,2147772342,2147568347,2147566838,457,3,13,24842
1358241216,5808,975.1599731445312000,40.8599205017089840,571.5833129882812000,4.1263480186462400,55.5025215148925800,55,97,100,77,83,15544,0,0,0,0,2147120054,2147774802,2147576192,2147569234,3422,2,13,12527
1358244816,5809,976.1199951171875000,39.9477500915527340,572.4110717773438000,4.1006088256835940,55.6512107849121100,55,97,99,77,82,15545,0,0,0,0,2147121974,2147776109,2147574171,2147567762,262,3,13,64758
1358248416,5809,970.3499755859375000,39.9527511596679700,572.8397827148438000,4.0872759819030760,55.6537017822265600,55,98,100,78,83,15543,0,0,0,0,2147124653,2147772635,2147574272,2147569865,800,2,13,10036
1358252016,5810,976.2000122070312000,39.8566894531250000,572.6928710937500000,4.0918459892272950,55.6668395996093750,55,99,100,78,81,15542,0,0,0,0,2147121261,2147774226,2147578249,2147569435,597,2,13,26899
1358255616,5806,985.0000000000000000,39.9849014282226560,572.6699218750000000,4.0925641059875490,55.6486396789550800,55,97,101,78,82,15543,0,0,0,0,2147126820,2147773540,2147580196,2147569846,295,2,13,45341
1358259216,5810,986.6500244140625000,40.5497283935546900,571.5424194335938000,4.1276211738586430,55.5536003112793000,55,111,100,80,82,15542,0,0,0,0,2147120740,2147771328,2147573869,2147569563,339,2,13,44680
1358262816,5810,993.6799926757812000,40.1214904785156250,571.8395996093750000,4.1183800697326660,55.6203002929687500,55,98,100,78,83,15541,0,0,0,0,2147122176,2147774537,2147574701,2147571684,68,2,13,35378
1358266416,5811,991.9699707031250000,39.0450286865234400,570.5515747070312000,4.1584191322326660,55.7673301696777340,54,98,101,78,83,15540,0,0,0,0,2147120320,2147773522,2147573046,2147570240,3570,3,13,18021
1358270016,5809,991.2500000000000000,38.7914505004882800,570.5667114257812000,4.1579489707946780,55.8075485229492200,54,99,101,77,82,15540,0,0,0,0,2147123446,2147775396,2147575085,2147570002,3351,2,13,40378
1358273616,5812,995.0700073242188000,38.8477287292480500,570.6705932617188000,4.1547198295593260,55.7953910827636700,55,100,100,78,82,15539,0,0,0,0,2147124205,2147773997,2147571949,2147568621,146,3,13,64609
1358277216,5812,993.1300048828125000,39.6802406311035160,570.7852783203125000,4.1511540412902830,55.6739006042480500,55,102,100,80,83,15539,0,0,0,0,2147124132,2147775360,2147575734,2147572416,43,2,13,44969
1358280816,5807,991.7500000000000000,39.9359703063964840,570.7988281250000000,4.1507339477539060,55.6314506530761700,55,98,100,79,82,15541,0,0,0,0,2147125696,2147773586,2147577782,2147569517,369,2,13,6002
1358284416,5810,996.0200195312500000,38.9733810424804700,570.7459106445312000,4.1523780822753910,55.7793006896972660,55,98,100,77,81,15540,0,0,0,0,2147123648,2147769453,2147572086,2147570020,110,2,13,42051
1358288016,5811,994.0300292968750000,39.5881996154785160,570.8079833984375000,4.1504478454589840,55.6883392333984400,55,97,100,78,82,15539,0,0,0,0,2147123712,2147772425,2147573028,2147570038,42,2,13,768
1358291616,5810,991.5900268554688000,39.6008110046386700,571.6660156250000000,4.1237769126892090,55.6941986083984400,55,97,100,78,82,15536,0,0,0,0,2147121243,2147774957,2147578294,2147571017,84,3,13,42046
1358295216,5808,995.9199829101562000,39.3618888854980500,571.5471191406250000,4.1274762153625490,55.7327308654785160,55,97,101,78,82,15538,0,0,0,0,2147123008,2147772050,2147572681,2147569508,3296,2,13,29215
1358298816,5810,990.9000244140625000,39.3441810607910160,571.5405273437500000,4.1276798248291020,55.7337684631347660,55,97,99,78,82,15538,0,0,0,0,2147121746,2147769280,2147574198,2147570093,3490,2,13,35635
1358302416,5809,991.2500000000000000,39.2461013793945300,572.6325073242188000,4.0937252044677730,55.7519912719726560,55,100,99,78,82,15538,0,0,0,0,2147123803,2147772214,2147573970,2147571346,3595,2,13,52056
1358306016,5809,993.6799926757812000,39.0425109863281250,572.3477172851562000,4.1025810241699220,55.7823410034179700,56,98,100,78,82,15537,0,0,0,0,2147123785,2147769819,2147574646,2147566299,147,2,13,46877
1358309616,5809,993.1099853515625000,38.8868713378906250,571.6668090820312000,4.1237530708312990,55.8041305541992200,55,99,101,78,81,15536,0,0,0,0,2147123812,2147770285,2147574784,2147571712,270,3,13,53112
1358313216,5811,998.3599853515625000,40.4243202209472660,570.8890991210938000,4.1479282379150390,55.5607490539550800,55,99,100,79,80,15536,0,0,0,0,2147121554,2147771940,2147573677,2147570212,93,3,13,45564
1358316816,5812,1000.7899780273438000,41.1345481872558600,570.6060791015625000,4.1567230224609375,55.4561004638671900,54,99,100,78,82,15535,0,0,0,0,2147125028,2147775643,2147573156,2147570505,3314,2,13,59286
1358320416,5810,996.6500244140625000,40.0097808837890600,571.3704223632812000,4.1329669952392580,55.6267890930175800,55,97,100,78,82,15535,0,0,0,0,2147125376,2147768795,2147573412,2147568886,339,2,13,39376
1358324016,5810,991.4299926757812000,39.0056610107421900,571.6574707031250000,4.1240429878234860,55.7794303894043000,55,98,100,77,82,15535,0,0,0,0,2147120832,2147772553,2147571584,2147568996,3534,2,13,15914
1358327616,5809,988.9199829101562000,38.9659385681152340,571.9680786132812000,4.1143860816955570,55.7938690185546900,54,98,102,78,81,15535,0,0,0,0,2147125549,2147772736,2147574665,2147568283,330,2,13,23884
1358331216,5810,991.7800292968750000,39.2261390686035160,572.2103881835938000,4.1068520545959470,55.7532806396484400,56,97,100,78,83,15535,0,0,0,0,2147122322,2147774253,2147575689,2147568384,3473,2,13,8970
1358334816,5809,993.4099731445312000,39.2285690307617200,572.1190185546875000,4.1096920967102050,55.7514686584472660,55,96,101,77,82,15535,0,0,0,0,2147120694,2147770752,2147572864,2147569664,107,2,13,28176
1358338416,5811,995.9000244140625000,39.0265808105468750,571.8308715820312000,4.1186518669128420,55.7779884338378900,55,98,100,78,82,15535,0,0,0,0,2147123913,2147773924,2147573952,2147572571,79,2,13,20694
1358342016,5807,1000.3499755859375000,39.3366012573242200,571.5690917968750000,4.1267890930175780,55.7299194335937500,55,98,101,77,82,15536,0,0,0,0,2147120429,2147773659,2147569316,2147569261,395,2,13,55662
1358345616,5810,999.7000122070312000,40.2530708312988300,571.0809936523438000,4.1419639587402340,55.5873298645019500,56,101,101,78,83,15535,0,0,0,0,2147121746,2147766710,2147572507,2147570377,72,2,13,30012
1358349216,5812,1000.2399902343750000,40.7549591064453100,571.4998779296875000,4.1289410591125490,55.5206298828125000,55,97,101,77,82,15526,0,0,0,0,2147123346,2147770331,2147573494,2147571117,81,3,13,24960
1358352816,5811,1004.8900146484375000,40.8668708801269500,570.7421264648438000,4.1524977684021000,55.4959983825683600,54,100,100,78,80,15535,0,0,0,0,2147121910,2147771026,2147574710,2147571940,234,3,13,11407
1358356416,5808,1000.8400268554688000,39.8603897094726560,570.7374267578125000,4.1526432037353520,55.6407508850097660,55,98,100,79,84,15533,0,0,0,0,2147125924,2147770578,2147570806,2147570404,518,2,13,30975
1358360016,5812,1001.3499755859375000,41.2145309448242200,571.2006835937500000,4.1382408142089840,55.4478416442871100,55,99,101,78,81,15531,0,0,0,0,2147122614,2147770953,2147573156,2147568786,3590,2,13,8974
1358363616,5811,995.2999877929688000,39.4016418457031250,571.9149169921875000,4.1160387992858890,55.7283515930175800,55,101,103,77,82,15530,0,0,0,0,2147123876,2147775616,2147570916,2147569837,494,3,13,37623
1358363755,5810,995.2800292968750000,39.3603210449218750,571.8784179687500000,4.1171741485595700,55.7321891784668000,55,97,99,78,83,15533,0,0,0,0,2147123245,2147769197,2147569581,2147571081,284,2,13,8400
